TimeWET,TemperatureF,Dew PointF,Humidity,Sea Level PressureIn,VisibilityMPH,Wind Direction,Wind SpeedMPH,Gust SpeedMPH,PrecipitationIn,Events,Conditions,WindDirDegrees,DateUTC
12:00 AM,54,17,12,,12,WSW,5.8,,,,Clear,250,2013-01-18 00:00:00
12:00 AM,53.6,17.6,24,30.18,-9999.0,WSW,5.8,-,N/A,,Clear,250,2013-01-18 00:00:00
1:00 AM,50.0,15.8,26,30.15,-9999.0,NNW,1.2,-,N/A,,Clear,340,2013-01-18 01:00:00
2:00 AM,50.0,5.0,16,30.15,-9999.0,NW,4.6,-,N/A,,Clear,320,2013-01-18 02:00:00
3:00 AM,48,7,9,,12,WNW,2.3,,,,Clear,290,2013-01-18 03:00:00
3:00 AM,48.2,6.8,19,30.15,-9999.0,WNW,2.3,-,N/A,,Clear,290,2013-01-18 03:00:00
4:00 AM,42.8,10.4,27,30.15,-9999.0,Calm,Calm,-,N/A,,Clear,0,2013-01-18 04:00:00
5:00 AM,41.0,14.0,33,30.15,-9999.0,Calm,Calm,-,N/A,,Clear,0,2013-01-18 05:00:00
6:00 AM,45,15,17,,12,South,1.2,,,,Clear,170,2013-01-18 06:00:00
6:00 AM,44.6,15.8,31,30.15,-9999.0,South,1.2,-,N/A,,Clear,170,2013-01-18 06:00:00
7:00 AM,37.4,12.2,36,30.15,-9999.0,NW,2.3,-,N/A,,Clear,310,2013-01-18 07:00:00
8:00 AM,35.6,10.4,35,30.15,-9999.0,Calm,Calm,-,N/A,,Clear,0,2013-01-18 08:00:00
9:00 AM,42,11,16,,12,Calm,Calm,,,,Clear,,2013-01-18 09:00:00
9:00 AM,42.8,12.2,29,30.18,-9999.0,Calm,Calm,-,N/A,,Clear,0,2013-01-18 09:00:00
10:00 AM,48.2,10.4,22,30.21,-9999.0,Calm,Calm,-,N/A,,Clear,0,2013-01-18 10:00:00
11:00 AM,51.8,5.0,15,30.21,-9999.0,Variable,1.2,-,N/A,,Clear,0,2013-01-18 11:00:00
12:00 PM,56,6,5,,12,West,1.2,,,,,260,2013-01-18 12:00:00
12:00 PM,57.2,6.8,13,30.18,-9999.0,Variable,1.2,-,N/A,,Clear,0,2013-01-18 12:00:00
1:00 PM,60.8,6.8,12,30.12,-9999.0,Calm,Calm,-,N/A,,Clear,0,2013-01-18 13:00:00
2:00 PM,66.2,10.4,11,30.09,-9999.0,Calm,Calm,-,N/A,,Clear,0,2013-01-18 14:00:00
3:00 PM,67,16,6,,12,South,1.2,,,,Scattered Clouds,190,2013-01-18 15:00:00
3:00 PM,66.2,15.8,14,30.06,6.2,Variable,1.2,-,N/A,,Partly Cloudy,0,2013-01-18 15:00:00
4:00 PM,69.8,15.8,13,30.04,6.2,Calm,Calm,-,N/A,,Partly Cloudy,0,2013-01-18 16:00:00
5:00 PM,69.8,19.4,15,30.04,-9999.0,Calm,Calm,-,N/A,,Clear,0,2013-01-18 17:00:00
6:00 PM,67,18,7,,12,NNW,1.2,,,,Scattered Clouds,330,2013-01-18 18:00:00
6:00 PM,68.0,17.6,15,30.04,6.2,Variable,1.2,-,N/A,,Partly Cloudy,0,2013-01-18 18:00:00
7:00 PM,64.4,-0.4,7,30.06,-9999.0,Variable,2.3,-,N/A,,Clear,0,2013-01-18 19:00:00
8:00 PM,62.6,8.6,12,30.06,-9999.0,SSE,4.6,-,N/A,,Clear,160,2013-01-18 20:00:00
9:00 PM,60,8,5,,12,South,3.5,,,,,180,2013-01-18 21:00:00
9:00 PM,60.8,6.8,12,30.06,-9999.0,Variable,3.5,-,N/A,,Clear,0,2013-01-18 21:00:00
10:00 PM,55.4,8.6,15,30.06,-9999.0,Variable,1.2,-,N/A,,Clear,0,2013-01-18 22:00:00
11:00 PM,53.6,10.4,18,30.04,-9999.0,Variable,2.3,-,N/A,,Clear,0,2013-01-18 23:00:00